View from above orbital plane
|
View from above satellite
|
Ground track
|
The orbit data is extracted from the following two-line orbital elements,
1 40069U 14037A 21023.63389845 -.00000044 00000-0 -11128-5 0 9996
2 40069 98.4780 58.5533 0005876 15.0707 345.0647 14.20680008339476
Epoch (UTC): | 23 January 2021 15:12:48 |
Eccentricity: | 0.0005876 |
inclination: | 98.4780° |
perigee height: | 819 km |
apogee height: | 827 km |
right ascension of ascending node: | 58.5533° |
argument of perigee: | 15.0707° |
revolutions per day: | 14.20680008 |
mean anomaly at epoch: | 345.0647° |
orbit number at epoch: | 33947 |
The dashed part of the orbit path shows where the satellite is in the earth's shadow,
|
|